Regional Weather Roundup
Issued by NWS

Home | Current Version | Previous Version | Text Only | Print | Product List | Glossary On
Versions: 1 2 3 4 5 6 7 8 9 10 11 12 13 14 15 16 17 18 19 20 21 22 23 24 25 26 27 28 29 30 31 32 33 34 35 36 37 38 39 40 41 42 43 44 45 46 47 48 49 50
000
ASCA42 TJSJ 290410
RWRPR
PUERTO RICO/U.S. VIRGIN ISLANDS HOURLY WEATHER ROUNDUP
NATIONAL WEATHER SERVICE SAN JUAN PR
1200 AM AST WED JUL 29 2015

PRZ001-004-290500-
PUERTO RICO

CITY           SKY/WX    TMP DP  RH WIND       PRES   REMARKS
SAN JUAN LMM   PTCLDY    81  75  83 E9        30.05F
PONCE          PTCLDY    79  72  78 CALM      30.00S
$$

PRZ006-007-290500-
U.S. VIRGIN ISLANDS

CITY           SKY/WX    TMP DP  RH WIND       PRES   REMARKS
CHARLOTTE AMA  CLEAR     82  73  74 E5        30.04F
CHRISTIANSTED  PTCLDY    81  72  74 E10       30.04F
$$

HOURLY WEATHER ROUNDUP FOR THE NEWS MEDIA

CITY           SKY/WX    TMP DP  RH WIND       PRES   REMARKS
ORLANDO        PTCLDY    77  77 100 W7        29.96F
NEW YORK       PTCLDY    80  71  74 SW8       29.98S
NEWARK         CLEAR     81  72  74 S6        29.97S
CHICAGO        MOCLDY    79  74  84 S5        29.93F
HARTFORD       CLEAR     69  67  93 CALM      29.96R
BOSTON         CLEAR     76  67  73 W6        29.96R
DALLAS         CLEAR     92  62  36 S13       29.94R HX  92
PHILADELPHIA   PTCLDY    80  72  76 W7        30.00R
LOS ANGELES    PTCLDY    69  65  86 W10       29.88R
WASHINGTON DC  CLEAR     72  71  97 CALM      30.00F


USA.gov is the U.S. government's official web portal to all federal, state and local government web resources and services.